Location: DARK SKY Beskydy - Park tmavé oblohy, www.darkskybeskydy.cz
(49.4926°N, 18.5016°E)
Time: 10:38:44
(UTC+02:00)

Transit 4A - Pass Details

Date: 05 March 2024
Orbit: 871 x 971 km, 66.8° (Epoch: 24 April)

Event Time Altitude Azimuth Distance (km) Brightness Sun altitude
Exits shadow 02:52:36 15° 335° (NNW) 2,234 9.9 -33.0°
Maximum altitude 02:53:45 16° 348° (NNW) 2,184 10.0 -32.9°
Drops below altitude 10° 02:57:15 10° 25° (NNE) 2,557 10.8 -32.4°
Sets 03:00:51 0° 47° (NE) 3,483 12.0 -31.9°
